Year,Month,Day,Hour,Minute,Value (Times are PST for barometer in hPa)
2013,09,29,20,04,985.28
2013,09,29,20,05,985.21
2013,09,29,20,06,985.25
2013,09,29,20,07,985.14
2013,09,29,20,08,985.21
2013,09,29,20,09,985.28
2013,09,29,20,10,985.35
2013,09,29,20,11,985.41
2013,09,29,20,12,985.44
2013,09,29,20,13,985.57
2013,09,29,20,14,985.68
2013,09,29,20,15,985.74
2013,09,29,20,16,985.85
2013,09,29,20,17,985.71
2013,09,29,20,18,985.71
2013,09,29,20,19,985.69
2013,09,29,20,20,985.70
2013,09,29,20,21,985.64
2013,09,29,20,22,985.61
2013,09,29,20,23,985.64
2013,09,29,20,24,985.60
2013,09,29,20,25,985.37
2013,09,29,20,26,985.17
2013,09,29,20,27,985.02
2013,09,29,20,28,984.96
2013,09,29,20,29,984.93
2013,09,29,20,30,984.93
2013,09,29,20,31,984.93
2013,09,29,20,32,984.93
2013,09,29,20,33,984.91
2013,09,29,20,34,984.84
2013,09,29,20,35,984.92
2013,09,29,20,36,985.04
2013,09,29,20,37,985.10
2013,09,29,20,38,985.15
2013,09,29,20,39,985.25
2013,09,29,20,40,985.30
2013,09,29,20,41,985.29
2013,09,29,20,42,985.24
2013,09,29,20,43,985.06
2013,09,29,20,44,984.81
2013,09,29,20,45,984.67
2013,09,29,20,46,984.60
2013,09,29,20,47,984.68
2013,09,29,20,48,984.99
2013,09,29,20,49,985.14
2013,09,29,20,50,985.22
2013,09,29,20,51,985.31
2013,09,29,20,52,985.33
2013,09,29,20,53,985.30
2013,09,29,20,54,985.30
2013,09,29,20,55,985.31
2013,09,29,20,56,985.34
2013,09,29,20,57,985.35
2013,09,29,20,58,985.44
2013,09,29,20,59,985.58
2013,09,29,21,00,985.67
2013,09,29,21,01,985.83
2013,09,29,21,02,985.92
2013,09,29,21,03,985.96
2013,09,29,21,04,985.98
2013,09,29,21,05,986.01
2013,09,29,21,06,986.12
2013,09,29,21,07,985.98
2013,09,29,21,08,986.12
2013,09,29,21,09,986.11
2013,09,29,21,10,986.09
2013,09,29,21,11,986.13
2013,09,29,21,12,986.18
2013,09,29,21,13,986.18
2013,09,29,21,14,986.16
2013,09,29,21,15,986.08
2013,09,29,21,16,986.07
2013,09,29,21,17,986.02
2013,09,29,21,18,986.04
2013,09,29,21,19,986.14
2013,09,29,21,20,986.25
2013,09,29,21,21,986.38
2013,09,29,21,22,986.50
2013,09,29,21,23,986.57
2013,09,29,21,24,986.63
2013,09,29,21,25,986.70
2013,09,29,21,26,986.73
2013,09,29,21,27,986.75
2013,09,29,21,28,986.74
2013,09,29,21,29,986.79
2013,09,29,21,30,986.79
2013,09,29,21,31,986.77
2013,09,29,21,32,986.78
2013,09,29,21,33,986.77
2013,09,29,21,34,986.84
2013,09,29,21,35,986.91
2013,09,29,21,36,986.97
2013,09,29,21,37,987.01
2013,09,29,21,38,987.03
2013,09,29,21,39,987.02
2013,09,29,21,40,986.94
2013,09,29,21,41,986.96
2013,09,29,21,42,986.94
2013,09,29,21,43,986.99
2013,09,29,21,44,986.93
2013,09,29,21,45,986.93
2013,09,29,21,46,986.93
2013,09,29,21,47,986.92
2013,09,29,21,48,986.84
2013,09,29,21,49,986.76
2013,09,29,21,50,986.76
2013,09,29,21,51,986.76
2013,09,29,21,52,986.79
2013,09,29,21,53,986.90
2013,09,29,21,54,986.91
2013,09,29,21,55,986.94
2013,09,29,21,56,986.97
2013,09,29,21,57,987.01
2013,09,29,21,58,987.03
2013,09,29,21,59,987.08
2013,09,29,22,00,987.17
2013,09,29,22,01,987.22
2013,09,29,22,02,987.35
2013,09,29,22,03,987.45
2013,09,29,22,04,987.48
2013,09,29,22,05,987.52
2013,09,29,22,06,987.56
2013,09,29,22,07,987.54
2013,09,29,22,08,987.58
2013,09,29,22,09,987.62
2013,09,29,22,10,987.65
2013,09,29,22,11,987.69
2013,09,29,22,12,987.81
2013,09,29,22,13,987.81
2013,09,29,22,14,987.81
2013,09,29,22,15,987.81
2013,09,29,22,16,987.82
2013,09,29,22,17,987.84
2013,09,29,22,18,987.82
2013,09,29,22,19,987.85
2013,09,29,22,20,987.90
2013,09,29,22,21,988.00
2013,09,29,22,22,988.09
2013,09,29,22,23,988.11
2013,09,29,22,24,988.12
2013,09,29,22,25,988.19
2013,09,29,22,26,988.26
2013,09,29,22,27,988.31
2013,09,29,22,28,988.28
2013,09,29,22,29,988.28
2013,09,29,22,30,988.29
2013,09,29,22,31,988.34
2013,09,29,22,32,988.36
2013,09,29,22,33,988.49
2013,09,29,22,34,988.35
2013,09,29,22,35,988.33
2013,09,29,22,36,988.37
2013,09,29,22,37,988.45
2013,09,29,22,38,988.46
2013,09,29,22,39,988.49
2013,09,29,22,40,988.46
2013,09,29,22,41,988.36
2013,09,29,22,42,988.41
2013,09,29,22,43,988.34
2013,09,29,22,44,988.29
2013,09,29,22,45,988.36
2013,09,29,22,46,988.40
2013,09,29,22,47,988.44
2013,09,29,22,48,988.41
2013,09,29,22,49,988.38
2013,09,29,22,50,988.53
2013,09,29,22,51,988.62
2013,09,29,22,52,988.73
2013,09,29,22,53,988.80
2013,09,29,22,54,988.84
2013,09,29,22,55,988.87
2013,09,29,22,56,988.92
2013,09,29,22,57,988.89
2013,09,29,22,58,988.87
2013,09,29,22,59,988.95
2013,09,29,23,00,989.09
2013,09,29,23,01,989.18
2013,09,29,23,02,989.10
2013,09,29,23,03,989.13
2013,09,29,23,04,989.21
2013,09,29,23,05,989.13
2013,09,29,23,06,989.14
2013,09,29,23,07,989.05
2013,09,29,23,08,989.03
2013,09,29,23,09,989.03
2013,09,29,23,10,989.04
2013,09,29,23,11,989.10
2013,09,29,23,12,989.13
2013,09,29,23,13,989.09
2013,09,29,23,14,989.02
2013,09,29,23,15,989.09
2013,09,29,23,16,989.04
2013,09,29,23,17,989.09
2013,09,29,23,18,989.03
2013,09,29,23,19,989.02
2013,09,29,23,20,988.95
2013,09,29,23,21,988.94
2013,09,29,23,22,988.95
2013,09,29,23,23,988.93
2013,09,29,23,24,988.93
2013,09,29,23,25,988.93
2013,09,29,23,26,988.97
2013,09,29,23,27,989.03
2013,09,29,23,28,989.01
2013,09,29,23,29,989.04
2013,09,29,23,30,989.05
2013,09,29,23,31,988.99
2013,09,29,23,32,988.94
2013,09,29,23,33,989.01
2013,09,29,23,34,989.02
2013,09,29,23,35,988.97
2013,09,29,23,36,989.03
2013,09,29,23,37,989.07
2013,09,29,23,38,989.09
2013,09,29,23,39,989.03
2013,09,29,23,40,989.04
2013,09,29,23,41,989.15
2013,09,29,23,42,989.24
2013,09,29,23,43,989.26
2013,09,29,23,44,989.25
2013,09,29,23,45,989.36
2013,09,29,23,46,989.33
2013,09,29,23,47,989.33
2013,09,29,23,48,989.34
2013,09,29,23,49,989.40
2013,09,29,23,50,989.40
2013,09,29,23,51,989.39
2013,09,29,23,52,989.46
2013,09,29,23,53,989.43
2013,09,29,23,54,989.36
2013,09,29,23,55,989.32
2013,09,29,23,56,989.29
2013,09,29,23,57,989.38
2013,09,29,23,58,989.41
2013,09,29,23,59,989.47
